Welcome to the New NWS' Forecast!
Most changes are behind the scenes, but click here for differences you might notice.
Latest weather observations around

El Dorado, South Arkansas Regional at Goodwin Field Airport (KELD)

Using English Units (Switch to International System of Units)
Date/ Time (CDT) Wind (mph) Vis. (mi) Weather Sky Cond. Temp (°F) Rel. Humidity Wind Chill (°F) Heat Index (°F) Pressure Precip. (in)
Air Dwpt 6 hour Altimeter (inHg) Sea level (inHg) 1 hr 3 hr 6 hr
Max Min
Apr 28 06:20 ESE 7 10 Cloudy BKN012 BKN018 OVC037 62 60     93%     29.69        
Apr 28 05:53 ESE 6 10 Cloudy FEW010 OVC035 62 59     90%     29.7 29.69      
Apr 28 05:37 SE 9 10 Mostly Cloudy FEW009 SCT014 BKN033 62 59     90%     29.7        
Apr 28 05:22 SE 7 10 Mostly Cloudy BKN014 BKN030 61 58     90%     29.7        
Apr 28 04:53 SE 6 10 Mostly Cloudy SCT018 SCT023 BKN029 61 58     90%     29.69 29.68      
Apr 28 03:53 ESE 5 10 Clear CLR 58 56     93%     29.71 29.7      
Apr 28 02:53 E 5 10 Clear CLR 58 55     90%     29.71 29.7      
Apr 28 01:53 E 5 10 Clear CLR 57 55     93%     29.72 29.71      
Apr 28 00:53 E 5 10 Clear CLR 58 54     87%     29.75 29.74      
Apr 27 23:53 E 5 10 Clear CLR 58 55     90%     29.75 29.74      
Apr 27 22:53 ESE 8 10 Clear CLR 61 55     81%     29.75 29.74      
Apr 27 21:53 E 5 10 Clear CLR 61 54     78%     29.76 29.75      
Apr 27 20:53 SE 7 10 Clear CLR 63 54     72%     29.74 29.73      
Apr 27 19:53 ESE 6 10 Clear CLR 65 53     65%     29.72 29.72      
Apr 27 18:53 ESE 11 10 Clear CLR 70 52     53%     29.73 29.72      
Apr 27 17:53 SE 9 10 Clear CLR 72 52     49%   71 29.74 29.73      
Apr 27 16:53 ESE 10 10 Clear CLR 72 52     49%   71 29.77 29.76      
Apr 27 15:53   10 Clear CLR 72 51     48%   71 29.8 29.79      
Apr 27 14:53 ESE 8 10 Clear CLR 70 50     49%     29.81 29.8      
Apr 27 13:53 N 5 10 Clear CLR 68 50     53%     29.84 29.83      
Apr 27 12:53 NE 3 10 Clear CLR 67 49     52%     29.85 29.85      
Apr 27 11:53 ESE 10 10 Clear CLR 64 48     56%     29.84 29.83      
Apr 27 09:53 E 7 10 Clear CLR 59 47     64%     29.87 29.86      
Apr 27 08:53 NNW 3 10 Clear CLR 55 48     77%     29.86        
Apr 27 07:53 W 6 10 Clear CLR 50 48     93% 48   29.84        
Apr 27 05:53 W 5 10 Clear CLR 47 46     97% 45   29.79        
Apr 27 04:53 WNW 6 10 Clear CLR 48 47     96% 45   29.76        
Apr 27 03:53 Calm 10 Clear CLR 48 47     96%     29.77 29.76      
Apr 27 02:53 Calm 10 Clear CLR 51 48     89%     29.76 29.76      
Apr 27 02:36 W 3 10 Partly Cloudy SCT023 51 47     86%     29.77        
Apr 27 01:53 WNW 11 10 Cloudy OVC020 53 48     83%     29.77 29.75      
Apr 27 00:53 WNW 10 10 Cloudy OVC020 53 49     86%     29.76 29.75      
Apr 27 00:22 WNW 13 10 Cloudy OVC016 54 49     83%     29.76        
Apr 26 23:53 WNW 10 10 Cloudy OVC014 54 51     90%     29.74 29.73      
Apr 26 23:42 WNW 14 10 Cloudy OVC012 54 51     90%     29.74        
Apr 26 23:06 WNW 14 10 Cloudy OVC009 54 52     93%     29.73        
Apr 26 22:53 WNW 9 10 Cloudy OVC010 55 53     93%     29.72 29.72      
Apr 26 22:29 W 13 8 Cloudy OVC009 55 54     96%     29.7        
Apr 26 22:19 W 14 8 Cloudy OVC010 56 54     93%     29.69        
Apr 26 21:53 W 10 10 Cloudy BKN009 OVC013 56 55     97%     29.68        
Apr 26 21:48 W 10 10 Cloudy BKN009 OVC013 55 55     100%     29.68        
Notice The following observation data may not be complete
Apr 26 20:53     Clear            %     29.64        
Notice The following observation data may not be complete
Apr 26 19:53     Clear            %     29.57        
Notice The following observation data may not be complete
Apr 26 18:36     Clear            %     29.55        
Notice The following observation data may not be complete
Apr 26 18:24     Clear            %     29.54        
Notice The following observation data may not be complete
Apr 26 17:53     Thunderstorms            %     29.5        
Notice The following observation data may not be complete
Apr 26 16:53     Thunderstorms            %     29.53        
Notice The following observation data may not be complete
Apr 26 16:46     Thunderstorms            %     29.49        
Notice The following observation data may not be complete
Apr 26 16:31     Clear            %     29.43        
Apr 26 15:53 S 14 9 Cloudy BKN039 BKN050 OVC070 77 68     74%   78 29.46 29.44 0 0  
Apr 26 14:53 S 13 10 Light Rain FEW030 BKN034 OVC046 78 68     71%   79 29.47 29.45 0    
Apr 26 14:19 S 21 10 Light Rain OVC034 79 68     69%   80 29.48   0    
Apr 26 13:53 S 15 10 Light Rain BKN029 OVC035 79 68     69%   80 29.48 29.46 0    
Apr 26 13:22 SSE 17 10 Light Rain SCT025 BKN034 80 69     69%   83 29.49   0    
Apr 26 13:12 SSE 20 10 Light Rain BKN025 BKN030 OVC075 78 69     74%   79 29.5   0    
Apr 26 12:20     Clear   74 70     87%   75 29.57        
Apr 26 11:53 SSE 11 10 Cloudy BKN018 OVC023 72 69     91%   73 29.58 29.57 0    
Apr 26 11:39 SSE 9 9 Light Rain FEW012 BKN019 OVC029 72 69     91%   73 29.58   0    
Apr 26 11:18 SSE 10 9 Light Rain FEW006 BKN012 OVC018 71 69     93%   72 29.58   0    
Apr 26 10:53 SE 10 6 Light Rain and Fog/Mist BKN006 BKN012 OVC020 70 69     97%     29.57 29.56 0    
Apr 26 10:42 SSE 6 6 Light Rain and Fog/Mist BKN006 OVC012 70 69     97%     29.59   0    
Apr 26 09:11 SE 7 9 Cloudy SCT024 BKN040 OVC049 69 68     96%     29.58        
Apr 26 08:53 SE 6 8 Cloudy BKN025 BKN031 OVC043 69 68     96%     29.58   0    
Apr 26 08:18 SE 7 7 Light Rain BKN024 BKN033 OVC050 69 67     93%     29.59   0    
Apr 26 07:53 SE 8 7 Light Rain FEW020 SCT034 OVC050 69 67     93%     29.6   0    
Apr 26 07:45 ESE 6 7 Light Rain FEW020 BKN034 OVC050 69 67     93%     29.59   0    
Apr 26 06:53 E 3 10 Cloudy OVC020 71 66     84%   72 29.57        
Apr 26 05:53 SSE 5 10 Cloudy BKN020 OVC026 71 66     84%   72 29.55        
Apr 26 05:13 SSE 9 10 Cloudy SCT022 BKN026 OVC039 71 66     84%   72 29.54        
Apr 26 04:53 SSE 9 10 Cloudy FEW019 SCT029 OVC038 71 66     84%   72 29.54        
Apr 26 03:53 SSE 11 10 Cloudy OVC039 71 65     81%   72 29.53        
Apr 26 02:53 SSE 13 10 Cloudy OVC040 72 65     79%   73 29.54        
Apr 26 01:53 S 10 10 Cloudy OVC039 72 65     79%   73 29.58        
Apr 26 00:53 SSE 10 10 Cloudy OVC040 73 65     76%   74 29.58 29.57      
Apr 25 23:53 S 11 10 Cloudy SCT030 OVC037 73 64     73%   73 29.59        
Apr 25 22:53 S 10 10 Clear   74 64     71%   74 29.59 29.58      
Notice The following observation data may not be complete
Apr 25 21:53     Clear            %     29.59        
Notice The following observation data may not be complete
Apr 25 20:53     Clear            %     29.58        
Notice The following observation data may not be complete
Apr 25 19:53     Clear            %     29.57        
Notice The following observation data may not be complete
Apr 25 18:53     Clear            %     29.57        
Notice The following observation data may not be complete
Apr 25 17:53     Clear            %     29.57        
Notice The following observation data may not be complete
Apr 25 16:53     Clear            %     29.57        
Notice The following observation data may not be complete
Apr 25 15:53     Clear            %     29.59        
Notice The following observation data may not be complete
Apr 25 14:53     Clear            %     29.62        
Notice The following observation data may not be complete
Apr 25 13:53     Clear            %     29.65        
Apr 25 12:53 S 18 10 Clear   77 58     52%   77 29.69 29.68      
Notice The following observation data may not be complete
Apr 25 11:53     Clear            %     29.71        
Apr 25 09:53 S 14 10 Clear   68 57     68%     29.73 29.72      
Notice The following observation data may not be complete
Apr 25 08:53     Clear            %     29.73        
Notice The following observation data may not be complete
Apr 25 07:53     Clear            %     29.73        
Apr 25 06:53     Clear   51 49     92%     29.73        
Apr 25 05:53 Calm 10 Clear CLR 51 48     89%     29.73        
Apr 25 04:53 SSE 3 10 Clear CLR 51 48     89%     29.73        
Apr 25 03:53 Calm 10 Clear CLR 51 48     89%     29.73        
Apr 25 02:53 Calm 10 Clear CLR 51 49     92%     29.72        
Apr 25 01:53 Calm 10 Clear CLR 53 49     86%     29.73 29.72      
Apr 25 00:53 Calm 10 Clear CLR 53 49     86%     29.74 29.73      
Apr 24 23:53 Calm 10 Clear CLR 55 49     80%     29.76 29.75      
Apr 24 22:53 SE 5 10 Clear CLR 58 50     75%     29.76 29.75      
Apr 24 21:53 Calm 10 Clear CLR 57 53     87%     29.76 29.75      
Apr 24 20:53 Calm   Clear   58 53     84%     29.76 29.75      
Notice The following observation data may not be complete
Apr 24 19:53     Clear            %     29.75        
Notice The following observation data may not be complete
Apr 24 18:53     Clear            %     29.75        
Notice The following observation data may not be complete
Apr 24 17:53     Clear            %     29.76        
Notice The following observation data may not be complete
Apr 24 16:53     Clear            %     29.78        
Notice The following observation data may not be complete
Apr 24 15:53     Clear            %     29.81        
Apr 24 13:53   10 Clear   76 40     27%   74 29.88 29.88      
Apr 24 12:53 W 9 10 Clear CLR 74 38     27%   72 29.93 29.92      
Apr 24 11:53 W 8 10 Clear CLR 72 33     24%   70 29.96 29.96      
Apr 24 10:53 NNW 9 10 Clear CLR 72 37     28%   70 29.98 29.97      
Apr 24 09:53 W 6 10 Clear CLR 68 44     42%     29.98 29.97      
Apr 24 08:53 NW 5 10 Clear CLR 60 49     67%     29.98 29.97      
Apr 24 07:53 Calm 10 Clear CLR 53 47     80%     29.98 29.97      
Apr 24 06:53 Calm 10 Clear CLR 47 43     86%     29.97 29.96      
Apr 24 05:53 Calm 10 Clear CLR 46 42     86%     29.96 29.95      
Apr 24 04:53 Calm 10 Clear CLR 45 43     93%     29.94 29.93      
Apr 24 03:53 Calm 10 Clear CLR 44 43     96%     29.91 29.91      
Apr 24 02:53 NE 3 10 Clear CLR 45 44     97% 44   29.9        
Apr 24 01:53 Calm 10 Clear CLR 47 45     93%     29.92        
Apr 24 00:53 Calm 10 Clear CLR 48 46     93%     29.94 29.94      
Apr 23 23:53 Calm 10 Clear CLR 50 48     93%     29.96 29.95      
Apr 23 22:53 Calm 10 Clear CLR 50 48     93%     29.98 29.98      
Apr 23 21:53 Calm 10 Clear CLR 53 50     89%     29.99 29.99      
Apr 23 20:53 Calm 10 Clear   56 50     80%     29.98 29.98      
Apr 23 19:53 Calm 10 Clear CLR 60 50     69%     29.98 29.97      
Apr 23 18:53 NNW 8 10 Clear CLR 68 45     43%     29.97 29.96      
Apr 23 17:53 NW 10 10 Clear CLR 70 45     41%     29.96 29.96      
Apr 23 16:53 NNW 13 10 Clear CLR 71 45     39%   70 29.96 29.95      
Apr 23 15:53 N 10 10 Partly Cloudy SCT055 70 46     42%     29.97 29.96      
Notice The following observation data may not be complete
Apr 23 14:53     Clear            %     29.99        
Notice The following observation data may not be complete
Apr 23 13:53     Clear            %     29.99        
Apr 23 12:53 NW 8 10 Partly Cloudy SCT041 64 46     52%     30.02 30.01      
Apr 23 11:53 NNW 11 10 Mostly Clear FEW040 63 47     56%     30.04 30.04      
Apr 23 10:53 WNW 9 10 Cloudy BKN030 OVC038 60 48     64%     30.05 30.05      
Apr 23 10:49 NW 10 10 Cloudy SCT030 OVC038 59 46     63%     30.05        
Apr 23 10:37 NW 11 10 Mostly Cloudy BKN026 BKN033 BKN040 57 47     69%     30.06        
Apr 23 10:30 N 10 10 Mostly Cloudy SCT026 BKN033 59 48     67%     30.06        
Apr 23 09:53 N 13 10 Cloudy SCT024 OVC028 55 47     74%     30.06 30.05      
Apr 23 09:24 N 11 10 Mostly Cloudy FEW020 BKN030 56 48     75%     30.05        
Apr 23 08:53 NNW 9 10 Cloudy FEW015 OVC027 54 48     80%     30.05 30.05      
Apr 23 08:28 NNW 8 10 Cloudy BKN026 OVC046 53 49     86%     30.06        
Apr 23 08:16 NNW 8 10 Cloudy SCT019 SCT026 OVC045 52 49     89%     30.05        
Apr 23 07:53 NNW 9 10 Cloudy OVC015 51 48     89%     30.05 30.05      
Apr 23 07:32 NNW 10 9 Cloudy OVC015 51 49     92%     30.05        
Apr 23 07:22 NW 9 9 Cloudy BKN013 OVC019 51 49     92%     30.05        
Apr 23 06:53 NW 6 10 Cloudy SCT016 BKN021 OVC043 51 48     89%     30.04 30.03     0
Apr 23 06:51 NW 7 10 Cloudy FEW016 BKN021 OVC043 52 48     87%     30.04        
Apr 23 05:53 NW 7 10 Cloudy OVC035 51 48     89%     30.02 30.01      
Apr 23 05:15 NNW 8 10 Cloudy OVC030 51 48     89%     30.01        
Apr 23 04:53 NNW 9 10 Cloudy OVC023 51 48     89%     30.01 30.01      
Apr 23 04:12 NNW 5 10 Cloudy BKN018 OVC043 51 49     92%     30        
Apr 23 03:53 NNW 6 10 Cloudy FEW012 BKN041 OVC060 51 49     92%     30 30 0 0  
Apr 23 03:40 NW 7 10 Cloudy FEW008 BKN020 OVC040 51 50     96%     30   0    
Apr 23 03:12 WNW 6 6 Light Rain and Fog/Mist SCT008 BKN014 OVC021 51 50     96%     30.01   0    
Apr 23 02:53 WNW 7 10 Light Rain FEW010 BKN022 OVC028 51 50     96%     30.01 30 0    
Apr 23 02:37 W 5 10 Light Rain FEW011 BKN021 OVC026 51 50     96%     30.01   0    
Apr 23 02:24 WNW 6 10 Light Rain FEW006 BKN013 OVC021 51 50     96%     30.01   0    
Apr 23 01:53 NW 8 7 Cloudy BKN009 OVC024 52 51     97%     30.02 30.01      
Apr 23 01:37 NNW 9 10 Cloudy BKN009 BKN016 OVC023 52 51     97%     30.02        
Apr 23 01:02 NW 8 10 Cloudy FEW008 BKN016 OVC023 51 50     96%     30.03        
Apr 23 00:53 NNW 8 8 Cloudy SCT008 BKN014 OVC021 51 50     96%     30.03 30.02 0   0
Apr 23 00:33 NNW 8 5 Light Rain and Fog/Mist FEW008 OVC014 51 50     96%     30.03   0    
Apr 22 23:53 NW 15 10 Cloudy OVC019 53 48     83%     30.03 30.02      
Apr 22 22:53 NW 10 10 Cloudy OVC021 54 48     80%     30.02 30.02      
Apr 22 22:21 NW 9 10 Cloudy BKN024 OVC034 55 49     80%     30.02        
Apr 22 21:53 NW 14 10 Cloudy FEW021 BKN034 OVC050 55 49     80%     30.02 30.01      
Apr 22 20:53 WNW 13 10 Cloudy FEW022 FEW033 OVC045 58 52     81%     29.99 29.98      
Apr 22 19:53 WNW 9 10 Cloudy OVC043 60 54     80%     29.97 29.96      
Apr 22 18:53 W 3 10 Cloudy OVC032 62 59     90%     29.94 29.93     0
Apr 22 17:53 WSW 5 10 Partly Cloudy FEW009 SCT110 62 59     90%     29.94 29.93 0    
Apr 22 17:17 W 5 10 Cloudy FEW009 SCT028 OVC036 61 59     93%     29.95   0    
Apr 22 16:53 W 6 10 Light Rain FEW007 BKN019 OVC024 61 59     93%     29.94 29.94 0    
Apr 22 16:43 W 9 10 Light Rain SCT007 BKN019 OVC027 61 58     90%     29.94   0    
Apr 22 16:29 W 11 6 Light Rain and Fog/Mist BKN007 BKN015 OVC020 60 59     96%     29.94   0    
Apr 22 16:20 WNW 8 6 Light Rain and Fog/Mist SCT007 BKN013 OVC022 61 60     97%     29.93   0    
Apr 22 16:11 WNW 10 3 Light Rain and Fog/Mist SCT007 BKN015 OVC024 61 59     93%     29.93   0    
Apr 22 16:03 WNW 9 2.5 Light Rain and Fog/Mist SCT007 BKN013 OVC028 62 60     93%     29.94   0    
Apr 22 15:53 WNW 10 9 Light Rain SCT009 BKN022 OVC027 62 60     93%     29.93 29.92 0 0  
Apr 22 15:43 NW 8 4 Light Rain and Fog/Mist SCT007 OVC019 61 60     97%     29.93   0    
Apr 22 15:33 NW 11 4 Light Rain and Fog/Mist BKN007 OVC018 62 60     93%     29.93   0    
Apr 22 15:26 NW 9 2.5 Light Rain and Fog/Mist BKN007 OVC018 62 60     93%     29.93   0    
Apr 22 15:14 NW 10 2.5 Light Rain and Fog/Mist SCT008 OVC018 61 60     97%     29.93   0    
Apr 22 14:53 WNW 7 6 Light Rain and Fog/Mist BKN016 OVC021 62 60     93%     29.93 29.92 0    
Apr 22 14:43 NW 8 4 Light Rain and Fog/Mist BKN016 OVC021 62 60     93%     29.93   0    
Apr 22 14:26 NW 10 8 Light Rain OVC014 62 59     90%     29.93   0    
Apr 22 13:53 NW 11 10 Cloudy OVC016 64 59     84%     29.93 29.92      
Apr 22 13:14 NW 9 10 Cloudy OVC015 64 59     84%     29.92        
Apr 22 12:53 NW 13 10 Cloudy OVC013 63 59     87%     29.93 29.92 0   0
Apr 22 12:07 NNW 13 10 Light Rain BKN012 OVC020 63 60     90%     29.93   0    
Apr 22 11:53 NNW 13 10 Light Rain   63 60     90%     29.93 29.92 0    
Apr 22 10:53 NW 11 8 Light Rain BKN007 OVC011 63 62     97%     29.91 29.9 0    
Apr 22 10:15 NW 15 3 Light Rain and Fog/Mist BKN006 BKN019 OVC025 65 65     100%     29.89   0    
Apr 22 10:10 NW 16 2.5 Light Rain and Fog/Mist BKN004 BKN008 OVC025 67 66     97%     29.89   0    
Apr 22 10:03 W 9 2.5 Light Rain and Fog/Mist SCT006 BKN019 OVC025 68 67     96%     29.88   0    
Apr 22 09:53 WNW 9 5 Light Rain and Fog/Mist FEW006 BKN013 OVC019 69 67     93%     29.87 29.86 0 0  
Apr 22 09:48 WNW 7 4 Light Rain and Fog/Mist SCT006 BKN012 OVC019 70 68     94%     29.87   0    
Apr 22 09:33 SW 6 2 Light Rain and Fog/Mist BKN009 OVC013 69 69     100%     29.86   0    
Apr 22 09:03 SSW 5 3 Light Rain and Fog/Mist BKN005 OVC010 69 69     100%     29.85   0    
Apr 22 08:53 SW 3 5 Fog/Mist BKN004 OVC010 69 68     96%     29.86 29.85 0    
Apr 22 08:40 Calm 4 Light Rain and Fog/Mist SCT004 BKN008 OVC012 69 68     96%     29.85   0    
Apr 22 08:23 SSW 5 5 Light Rain and Fog/Mist OVC013 69 68     96%     29.85   0    
Apr 22 08:00 S 6 5 Light Rain and Fog/Mist SCT017 BKN027 OVC040 69 68     96%     29.84   0    
Apr 22 07:53 S 3 5 Light Rain and Fog/Mist FEW015 BKN040 OVC047 69 68     96%     29.84 29.83 0    
Apr 22 07:04 SSW 6 9 Cloudy SCT017 SCT030 OVC037 69 67     93%     29.83        
Apr 22 06:53 S 3 9 Cloudy BKN017 OVC035 69 67     93%     29.83 29.82      
Apr 22 06:20 SSE 3 9 Cloudy BKN020 OVC047 69 67     93%     29.82        
Apr 22 05:53 SSW 3 9 Mostly Clear FEW040 FEW050 68 67     96%     29.82 29.81      
Apr 22 05:02 SW 8 9 Mostly Cloudy BKN031 BKN039 69 67     93%     29.81        
Apr 22 04:53 SW 7 9 Mostly Cloudy FEW024 BKN029 69 67     93%     29.8 29.79      
Apr 22 04:36 SSW 5 9 Mostly Cloudy FEW023 BKN027 69 67     93%     29.81        
Apr 22 03:53 SW 9 9 Clear CLR 69 67     93%     29.8 29.79      
Apr 22 02:53 SSW 7 10 Clear CLR 69 67     93%     29.8 29.79      
Apr 22 01:53 S 8 10 Clear CLR 70 67     90%     29.79 29.78      
Apr 22 00:53 SSW 3 8 Clear CLR 70 68     93%     29.8 29.79     0
Apr 21 23:53 S 6 9 Clear CLR 71 69     93%   72 29.81 29.8      
Apr 21 22:53 SSE 5 10 Mostly Cloudy FEW045 SCT055 BKN070 72 69     91%   73 29.8 29.79 0    
Apr 21 22:33 SSE 8 9 Mostly Cloudy FEW041 BKN055 BKN070 72 69     91%   73 29.81   0    
Apr 21 22:18 S 5 10 Mostly Cloudy FEW036 SCT045 BKN065 72 69     91%   73 29.82   0    
Apr 21 21:53 S 13 6 Light Rain and Fog/Mist FEW040 BKN060 73 69     87%   74 29.81 29.8 0 0  
Apr 21 20:53 SSE 7 10 Cloudy FEW065 BKN090 OVC110 75 70     84%   76 29.8 29.79      
Apr 21 19:53 ENE 3 9 Cloudy SCT065 BKN085 OVC100 76 72     88%   77 29.81 29.8      
Apr 21 18:53 Calm 9 Mostly Clear FEW100 80 71     74%   84 29.8 29.79     0
Apr 21 17:53 Calm 10 Clear CLR 79 70     74%   82 29.8 29.79      
Apr 21 16:53 Calm 10 Cloudy SCT070 OVC100 75 70     84%   76 29.82 29.81 0    
Apr 21 15:53 SW 6 10 Mostly Cloudy FEW046 SCT055 BKN075 82 65     56%   84 29.83 29.82      
Apr 21 14:53 SW 7 10 Mostly Cloudy BKN090 81 65     58%   83 29.86 29.85      
Apr 21 13:53 SSW 14 10 Mostly Cloudy FEW040 SCT060 BKN080 82 65     56%   84 29.89 29.87      
Apr 21 12:53 SSE 13 10 Clear CLR 81 66     61%   83 29.9 29.89      
Apr 21 11:53 S 7 10 Partly Cloudy FEW030 SCT041 78 64     62%   79 29.94 29.93      
Apr 21 11:37 SSW 9 9 Mostly Cloudy SCT029 BKN037 77 65     66%   78 29.94        
Apr 21 10:53 S 6 10 Cloudy BKN023 BKN028 OVC035 77 67     71%   78 29.96 29.95      
Apr 21 09:53 S 10 8 Cloudy BKN018 OVC023 73 66     79%   74 29.97 29.96      
Apr 21 09:03 SSW 10 8 Cloudy BKN015 OVC022 71 67     87%   72 29.96        
Apr 21 08:53 S 14 8 Cloudy OVC013 71 67     87%   72 29.96 29.95      
Apr 21 08:29 S 9 8 Mostly Cloudy BKN012 71 67     87%   72 29.95        
Apr 21 07:53 S 9 7 Partly Cloudy SCT012 69 67     93%     29.95 29.94      
Apr 21 06:53 SSW 7 6 Fog/Mist OVC011 68 67     96%     29.95 29.94      
Apr 21 06:46 S 7 6 Fog/Mist OVC011 68 66     93%     29.95        
Apr 21 06:26 SSW 8 7 Mostly Cloudy BKN009 67 66     97%     29.96        
Apr 21 06:14 SSW 7 7 Partly Cloudy SCT009 67 66     97%     29.96        
Apr 21 05:53 SSW 5 7 Clear CLR 66 66     100%     29.96 29.95      
Apr 21 04:53 S 7 8 Mostly Cloudy BKN100 67 66     97%     29.96 29.95      
Apr 21 03:53 S 7 9 Clear CLR 68 67     96%     29.96 29.95      
Apr 21 02:53 S 7 9 Clear CLR 69 67     93%     29.97 29.96      
Apr 21 01:53 SSE 7 10 Clear CLR 69 66     90%     29.98 29.96      
Apr 21 00:53 Calm 8 Mostly Clear FEW080 66 65     96%     29.98 29.98      
Apr 20 23:53 Calm 8 Clear CLR 67 65     93%     29.99 29.98      
Apr 20 22:53 Calm 8 Clear CLR 68 66     93%     30 29.99      
Apr 20 21:53 Calm 8 Clear CLR 69 67     93%     30.01 30      
Apr 20 20:53 Calm 10 Clear CLR 70 66     87%     30 29.99      
Apr 20 19:53 Calm 9 Clear CLR 73 67     81%   74 29.98 29.97      
Apr 20 18:53 Calm 10 Clear CLR 81 64     56%   83 29.99 29.98      
Apr 20 17:53 SSW 5 9 Clear CLR 82 62     51%   83 30 29.99      
Apr 20 16:53 S 5 10 Clear CLR 83 62     49%   84 30 29.99      
Apr 20 15:53 S 8 10 Mostly Clear FEW047 82 63     53%   83 30.02 30.01      
Apr 19 15:53 S 11 10 Mostly Clear FEW050 82 60     47%   82 30.07 30.06      
Apr 19 14:53 SSE 9 10 Partly Cloudy SCT048 82 62     51%   83 30.09 30.08      
Apr 19 13:53 SSE 8 10 Mostly Cloudy BKN044 BKN050 80 63     56%   81 30.1 30.09      
Apr 19 12:53 S 11 10 Partly Cloudy SCT039 80 63     56%   81 30.12 30.11      
Apr 19 11:53 SSE 9 10 Mostly Clear FEW032 79 64     60%   79 30.13 30.12      
Apr 19 10:53 S 9 9 Mostly Clear FEW019 75 67     76%   76 30.14 30.14      
Apr 19 09:53 SSE 7 9 Mostly Clear FEW015 74 68     82%   75 30.14 30.13      
Apr 19 08:53 SSE 6 9 Clear CLR 69 66     90%     30.14 30.13      
Apr 19 07:53 Calm 8 Partly Cloudy FEW001 SCT009 64 63     96%     30.13 30.12      
Apr 19 07:36 Calm 7 Mostly Cloudy SCT001 BKN005 63 62     97%     30.13        
Apr 19 06:53 Calm 7 Mostly Clear FEW001 FEW020 61 60     97%     30.12 30.11      
Apr 19 06:13 Calm 4 Fog/Mist CLR 60 60     100%     30.11        
Apr 19 05:53 Calm 2 Fog/Mist CLR 61 61     100%     30.1 30.09      
Apr 19 04:53 Calm 8 Clear CLR 62 62     100%     30.1 30.09      
Apr 19 03:53 Calm 8 Mostly Cloudy BKN033 63 62     97%     30.1 30.09      
Apr 19 02:53 S 3 7 Clear CLR 62 62     100%     30.09 30.08      
Apr 19 01:53 Calm 7 Clear CLR 63 63     100%     30.1 30.09      
Apr 19 00:53 NNE 3 8 Clear CLR 64 63     96%     30.1 30.09     0
Apr 18 22:53 S 5 9 Clear CLR 66 65     96%     30.1 30.09      
Apr 18 21:53 ENE 3 10 Mostly Clear FEW039 66 65     96%     30.11 30.1 0 0  
Apr 18 20:53 ENE 8 7 Light Rain FEW090 OVC110 66 65     96%     30.08 30.07 0    
Apr 18 20:25 Calm 9 Light Rain OVC110 67 64     90%     30.08   0    
Apr 18 20:05 S 8 7 Light Rain SCT047 SCT060 OVC100 67 63     87%     30.07   0    
Notice The following observation data may not be complete
Apr 18 19:53 S 9 7 Thunderstorms and Rain BKN045 BKN055 OVC090   64      %     30.07 30.06 0    
Apr 18 19:13   10 Thunderstorms FEW050 75 70     84%   76 30.06        
Apr 18 18:53 Calm 10 Mostly Clear FEW120 75 70     84%   76 30.04 30.03      
Apr 18 17:53 Calm 10 Mostly Cloudy BKN110 79 65     62%   80 30.03 30.02      
Apr 18 16:53 SSE 6 10 Mostly Cloudy BKN100 BKN110 80 64     58%   82 30.03 30.02      
Apr 18 15:53 SW 6 10 Mostly Clear FEW110 81 63     54%   82 30.03 30.02      
Apr 18 14:53 SW 8 10 Partly Cloudy SCT045 81 63     54%   82 30.04 30.03      
Apr 18 13:53 SSE 9 10 Mostly Clear FEW040 81 62     53%   82 30.05 30.04      
Apr 18 12:53 S 8 10 Partly Cloudy SCT029 80 67     64%   82 30.07 30.06      
Apr 18 11:53 SSE 9 10 Mostly Clear FEW120 77 65     66%   78 30.09 30.08      
Apr 18 10:53 SSE 6 10 Cloudy OVC120 73 65     76%   74 30.09 30.08      
Apr 18 09:53 S 6 10 Mostly Cloudy FEW008 BKN110 70 66     87%     30.09 30.08      
Apr 18 08:53 Calm 10 Mostly Cloudy BKN110 68 64     87%     30.08 30.07      
Apr 18 07:53 Calm 9 Clear CLR 63 62     97%     30.07 30.06      
Apr 18 06:53 Calm 9 Clear CLR 61 60     97%     30.05 30.04      
Apr 18 05:53 Calm 10 Clear CLR 62 61     96%     30.05 30.04      
Apr 18 04:53 Calm 9 Clear CLR 61 60     97%     30.04 30.03      
Apr 18 03:53 Calm 10 Clear CLR 63 62     97%     30.03 30.02      
Apr 18 02:53 Calm 10 Clear CLR 63 62     97%     30.02 30.01      
Apr 18 01:53 Calm 10 Mostly Cloudy SCT033 BKN055 65 63     93%     30.03 30.01      
Apr 18 01:20 Calm 10 Cloudy BKN027 OVC046 65 63     93%     30.03        
Apr 18 00:53 Calm 10 Partly Cloudy SCT046 64 63     96%     30.03 30.02      
Apr 17 23:53 Calm 10 Clear   64 63     96%     30.03 30.02      
Apr 17 22:53 WNW 5 10 Clear CLR 64 64     100%     30.03 30.02      
Apr 17 21:53 Calm 10 Clear CLR 66 64     93%     30.03 30.02      
Apr 17 20:53 Calm 10 Mostly Clear FEW120 66 65     96%     30.01 30.01      
Apr 17 19:53 Calm 10 Mostly Clear FEW120 68 66     93%     30.01 30      
Apr 17 18:53 Calm 10 Mostly Clear FEW120 75 63     66%   75 29.99 29.98     0
Apr 17 17:53 ESE 9 10 Clear CLR 76 63     64%   76 29.98 29.96      
Apr 17 16:53 E 7 10 Clear CLR 77 60     56%   77 29.98 29.97      
Apr 17 15:53 N 6 10 Mostly Clear FEW038 77 59     54%   77 30.01 30   0  
Apr 17 14:53 N 9 10 Partly Cloudy SCT022 76 65     69%   76 30.04 30.03      
Apr 17 14:03 N 8 10 Partly Cloudy FEW006 SCT014 SCT120 73 67     81%   74 30.07        
Apr 17 13:53 NNW 7 10 Mostly Cloudy SCT006 BKN010 73 68     84%   74 30.07 30.06 0    
Apr 17 13:43 NNW 5 9 Mostly Cloudy BKN006 BKN030 BKN060 71 68     90%   72 30.08   0    
Apr 17 13:33 NNW 5 8 Cloudy SCT006 BKN033 OVC075 70 68     93%     30.08   0    
Apr 17 13:24 NNW 3 5 Light Rain and Fog/Mist FEW006 BKN029 OVC090 69 67     93%     30.09   0    
Notice The following observation data may not be complete
Apr 17 13:13 N 6 3 Thunderstorms and Heavy Rain and Fog/Mist FEW006 BKN065 OVC095   66      %     30.09   0    
Apr 17 13:04 N 6 2 Thunderstorms and Rain and Fog/Mist SCT006 BKN036 OVC095 68 67     96%     30.1   0    
Notice The following observation data may not be complete
Apr 17 12:53 WNW 3 1 Thunderstorms and Heavy Rain and Fog/Mist SCT006 BKN022 OVC041   67      %     30.11 30.09 0   0
Notice The following observation data may not be complete
Apr 17 12:46 S 3 1.25 Thunderstorms and Heavy Rain and Fog/Mist SCT006 BKN039 OVC048   67      %     30.11   0    
Apr 17 12:30 N 8 1.75 Thunderstorms and Heavy Rain and Fog/Mist FEW019 BKN043 OVC050 68 66     93%     30.1   0    
Apr 17 12:27 NNW 7 5 Thunderstorms and Rain and Fog/Mist SCT029 BKN039 OVC047 69 65     87%     30.1   0    
Apr 17 12:18 NNW 13 9 Cloudy FEW017 BKN029 OVC039 71 65     81%   72 30.09        
Apr 17 11:53 W 6 9 Cloudy BKN018 OVC026 74 67     79%   75 30.1 30.09      
Apr 17 10:53 SW 7 9 Cloudy BKN018 OVC025 73 67     81%   74 30.1 30.09      
Apr 17 10:38 SSW 7 9 Cloudy FEW014 BKN025 OVC039 73 67     81%   74 30.1        
Apr 17 10:10 SSW 7 9 Cloudy SCT011 BKN038 OVC110 72 67     84%   73 30.09        
Apr 17 10:03 SSW 6 9 Cloudy BKN011 BKN037 OVC110 72 67     84%   73 30.09        
Apr 17 09:53 SSW 6 8 Cloudy BKN009 BKN037 OVC110 71 67     87%   72 30.09 30.08      
Apr 17 08:53 SSW 8 7 Cloudy OVC005 68 67     96%     30.08 30.06      
Apr 17 08:04 S 5 6 Fog/Mist SCT004 BKN008 OVC100 67 66     97%     30.08        
Apr 17 07:53 S 5 6 Fog/Mist SCT004 SCT008 OVC100 66 65     96%     30.08 30.07      
Apr 17 07:19 S 3 6 Fog/Mist FEW006 BKN100 65 65     100%     30.07        
Apr 17 06:53 SSE 3 6 Fog/Mist OVC100 65 64     97%     30.06 30.05      
Apr 17 05:53 SSE 6 7 Partly Cloudy SCT095 65 64     97%     30.05 30.04      
Apr 17 04:53 Calm 8 Partly Cloudy FEW034 SCT075 64 64     100%     30.07 30.06      
Apr 17 03:53 Calm 9 Clear   65 64     97%     30.07 30.06      
Apr 17 02:53 S 3 9 Clear CLR 66 64     93%     30.05 30.04      
Apr 17 01:53 SSE 6 10 Clear CLR 67 64     90%     30.03 30.02      
Apr 17 00:53 SSE 8 10 Clear CLR 68 64     87%     30.04 30.03      
Apr 16 23:53 SE 5 10 Clear CLR 68 64     87%     30.04 30.03      
Apr 16 22:53 Calm 10 Clear CLR 66 64     93%     30.04 30.03      
Apr 16 21:53 Calm 10 Clear CLR 67 64     90%     30.07 30.06      
Apr 16 20:53 Calm 10 Clear CLR 69 65     87%     30.06 30.05      
Apr 16 19:53 Calm 10 Clear CLR 70 66     87%     30.05 30.04      
Apr 16 18:53 SSW 3 10 Clear CLR 79 62     56%   79 30.03 30.02     0
Apr 16 17:53 S 7 10 Clear CLR 81 61     51%   82 30.02 30.01      
Apr 16 16:53 7 10 Mostly Clear FEW085 81 59     47%   81 30.04 30.03      
Apr 16 15:53 SSE 5 10 Cloudy BKN070 OVC090 78 65     64%   79 30.06 30.06 0 0  
Apr 16 14:53 S 10 10 Mostly Cloudy FEW040 SCT075 BKN100 78 64     62%   79 30.11 30.1      
Apr 16 13:53 Calm 10 Partly Cloudy FEW041 SCT070 79 62     56%   79 30.13 30.12      
Apr 16 12:53 SSE 7 10 Mostly Clear FEW033 79 64     60%   79 30.14 30.13      
Apr 16 11:53 5 10 Partly Cloudy SCT027 SCT041 78 65     64%   79 30.14 30.14      
Apr 16 11:51 SE 6 10 Partly Cloudy SCT027 SCT041 77 64     65%   77 30.14        
Apr 16 11:40 SSE 11 10 Mostly Cloudy BKN026 BKN041 76 65     69%   76 30.14        
Apr 16 11:28 SW 8 10 Mostly Cloudy FEW024 SCT029 BKN035 76 64     67%   76 30.14        
Apr 16 11:19 SSE 8 10 Mostly Cloudy BKN026 BKN036 BKN043 76 64     67%   76 30.14        
Apr 09 00:53 S 11 10 Clear CLR 63 53     70%     29.96 29.95      
Apr 08 23:53 S 9 10 Clear CLR 64 54     70%     29.95 29.94      
Apr 08 22:53 SSE 8 10 Clear CLR 65 53     65%     29.95 29.94      
Apr 08 21:53 SSE 5 10 Clear CLR 66 52     61%     29.96 29.95      
Apr 08 20:53 SSE 6 10 Clear CLR 67 52     59%     29.95 29.94      
Apr 08 19:53 SSE 3 10 Clear CLR 69 52     54%     29.94 29.93      
Apr 08 18:53 S 7 10 Clear CLR 75 51     43%   74 29.94 29.94      
Apr 08 17:53 S 11 10 Clear CLR 78 50     37%   77 29.95 29.94      
Apr 08 16:53 S 16 10 Clear CLR 79 49     35%   78 29.96 29.96      
Apr 08 15:53 S 10 10 Clear CLR 79 49     35%   78 29.98 29.98      
Apr 08 14:53 SSW 13 10 Clear CLR 79 50     36%   78 30.02 30.01      
Apr 08 13:53 S 13 10 Mostly Clear FEW060 77 50     39%   76 30.05 30.04      
Apr 08 12:53 S 8 10 Clear CLR 77 51     40%   76 30.07 30.06      
Apr 08 11:53 SSW 13 10 Clear CLR 74 50     43%   73 30.1 30.09      
Apr 08 10:53 SSW 11 10 Clear CLR 70 54     57%     30.11 30.11      
Apr 08 09:53 S 7 10 Clear CLR 66 53     63%     30.11 30.1      
Apr 08 08:53 SSE 5 10 Clear CLR 58 50     75%     30.11 30.1      
Apr 08 07:53 SSE 6 10 Clear CLR 51 46     83%     30.11 30.1      
Apr 08 06:53 Calm 10 Clear CLR 47 44     90%     30.1 30.09      
Apr 08 05:53 Calm 10 Clear CLR 46 44     93%     30.1 30.09      
Apr 08 04:53 Calm 10 Clear CLR 48 45     89%     30.09 30.08      
Apr 08 03:53 Calm 10 Clear CLR 47 45     93%     30.08 30.08      
Apr 08 02:53 Calm 10 Clear CLR 48 45     89%     30.08 30.08      
Apr 08 01:53 Calm 10 Clear CLR 48 46     93%     30.1 30.09      
Apr 08 00:53 Calm 10 Clear CLR 49 46     90%     30.11 30.1      
Apr 07 23:53 Calm 10 Clear CLR 49 46     90%     30.12 30.11      
Apr 07 22:53 Calm 10 Clear CLR 52 47     83%     30.13 30.12      
Apr 07 21:53 Calm 10 Clear CLR 54 47     77%     30.13 30.13      
Apr 07 20:53 Calm 10 Clear CLR 55 49     80%     30.12 30.12      
Apr 07 19:53 W 3 10 Clear CLR 60 45     57%     30.12 30.11      
Apr 07 18:53 SW 5 10 Clear CLR 69 41     36%     30.12 30.11      
Apr 07 17:53 WNW 5 10 Clear CLR 72 38     29%   70 30.13 30.12      
Apr 07 16:53 NNW 10 10 Clear CLR 73 37     27%   71 30.14 30.13      
Apr 07 15:53 5 10 Clear CLR 72 34     25%   70 30.17 30.16      
Apr 07 14:53 5 10 Clear CLR 71 33     25%   69 30.2 30.19      
Apr 07 13:53 7 10 Clear CLR 70 34     26%     30.23 30.22      
Apr 07 12:53 5 10 Clear CLR 68 34     28%     30.25 30.25      
Apr 07 11:53 NE 6 10 Clear CLR 65 32     29%     30.27 30.27      
Apr 07 10:53   10 Clear CLR 62 32     32%     30.29 30.28      
Apr 07 09:53 NE 7 10 Clear CLR 60 36     40%     30.3 30.29      
Apr 07 08:53 NNW 3 10 Clear CLR 53 37     54%     30.29 30.29      
Apr 07 07:53 Calm 10 Clear CLR 44 40     85%     30.27 30.27      
Apr 07 06:53 Calm 10 Clear CLR 40 37     89%     30.25 30.24      
Apr 07 05:53 Calm 10 Clear CLR 41 37     86%     30.23 30.23      
Apr 07 04:53 Calm 10 Clear CLR 42 37     82%     30.22 30.21      
Apr 07 03:53 Calm 10 Clear CLR 45 37     74%     30.22 30.21      
Apr 07 02:53 N 5 10 Clear CLR 50 34     54% 48   30.22 30.21      
Apr 07 01:53 N 6 10 Clear CLR 51 34     52%     30.22 30.22      
Apr 07 00:53 NNW 7 10 Clear CLR 52 34     50%     30.22 30.21      
Apr 06 23:53 NW 7 10 Clear CLR 51 35     54%     30.2 30.2      
Apr 06 22:53 WNW 3 10 Clear CLR 51 38     61%     30.2 30.19      
Apr 06 21:53 W 3 10 Clear CLR 53 36     52%     30.19 30.18      
Apr 06 20:53 WNW 6 10 Clear CLR 58 33     39%     30.16 30.15      
Apr 06 19:53 WNW 7 10 Clear CLR 62 30     30%     30.14 30.13      
Apr 06 18:53 WNW 11 10 Clear CLR 68 29     23%     30.12 30.12      
Apr 06 17:53 NW 14 10 Clear CLR 70 30     23%     30.12 30.12      
Apr 06 16:53 WNW 14 10 Mostly Clear FEW090 71 33     25%   69 30.13 30.12      
Apr 06 15:53 WNW 13 10 Mostly Clear FEW085 70 35     28%     30.14 30.14      
Apr 06 14:53 NNW 18 10 Clear CLR 70 33     26%     30.15 30.15      
Apr 06 13:53 W 14 10 Clear CLR 68 32     26%     30.18 30.17      
Apr 06 12:53 WNW 9 10 Clear CLR 67 35     31%     30.2 30.19      
Apr 06 11:53 WNW 11 10 Clear CLR 65 36     34%     30.22 30.21      
Apr 06 10:53 NW 8 10 Clear CLR 63 38     40%     30.23 30.22      
Apr 06 09:53 NNW 10 10 Clear CLR 59 38     45%     30.2 30.2      
Apr 06 08:53 NW 9 10 Clear CLR 54 42     64%     30.2 30.19      
Apr 06 07:53 NW 7 10 Clear CLR 49 42     77% 46   30.18 30.17      
Apr 06 06:53 W 7 10 Clear CLR 46 40     79% 42   30.15 30.14      
Apr 06 05:53 W 5 10 Clear CLR 46 40     79% 44   30.11 30.11      
Apr 06 04:53 WNW 7 10 Clear CLR 47 40     76% 44   30.08 30.08      
Apr 06 03:53 W 6 10 Clear CLR 48 40     73% 45   30.06 30.05      
Apr 06 02:53 WSW 5 10 Clear CLR 47 40     76% 45   30.05 30.05      
Apr 06 01:53 W 3 10 Clear CLR 50 40     68% 49   30.05 30.04      
Apr 06 00:53 W 3 10 Clear CLR 50 40     68% 49   30.05 30.05      
Apr 05 23:53 W 7 10 Clear CLR 52 41     66%     30.04 30.03      
Apr 05 22:53 WSW 5 10 Clear CLR 50 42     74% 48   30.03 30.03      
Apr 05 21:53 W 3 10 Clear CLR 48 44     86% 47   30.02 30.02      
Apr 05 20:53 Calm 10 Clear CLR 52 44     74%     30.01 30.01      
Apr 05 19:53 W 3 10 Clear CLR 57 41     55%     29.98 29.97      
Apr 05 18:53 WNW 13 10 Clear CLR 61 39     44%     29.97 29.96      
Apr 05 17:53 W 14 10 Clear CLR 63 41     45%     29.95 29.94      
Apr 05 16:53 W 18 10 Mostly Cloudy BKN060 61 41     48%     29.94 29.93      
Apr 05 15:53 W 22 10 Cloudy and Windy SCT046 OVC060 61 43     52%     29.93 29.92      
Apr 05 14:53 W 15 10 Clear   60 43     53%     29.92 29.92      
Apr 05 13:53 WSW 18 10 Cloudy BKN045 OVC055 60 42     51%     29.9 29.9      
Apr 05 12:53 W 14 10 Mostly Cloudy BKN042 BKN048 60 42     51%     29.88 29.88      
Apr 05 11:53 W 16 10 Cloudy OVC036 58 43     57%     29.88 29.87      
Apr 05 10:53 W 21 10 Cloudy and Windy OVC034 56 42     60%     29.85 29.84      
Apr 05 10:15 W 17 10 Mostly Cloudy BKN030 57 43     59%     29.84        
Apr 05 10:01 W 22 10 Mostly Cloudy and Windy BKN029 56 43     62%     29.83        
Apr 05 09:53 WSW 22 10 Partly Cloudy and Windy SCT029 57 44     62%     29.83 29.82      
Apr 05 09:36 W 20 10 Partly Cloudy and Windy SCT027 56 43     62%     29.82        
Apr 05 08:53 W 18 10 Cloudy OVC026 55 44     66%     29.81 29.8      
Apr 05 07:53 W 13 10 Mostly Cloudy BKN022 57 49     74%     29.76 29.75      
Apr 05 07:50 W 14 10 Mostly Cloudy BKN022 57 48     72%     29.76        
Apr 05 06:53 W 16 10 Clear CLR 60 52     75%     29.72 29.7     0
Apr 05 05:53 SSW 9 10 Clear CLR 62 57     84%     29.68 29.67      
Apr 05 04:53 Calm 10 Clear   62 57     84%     29.67 29.65      
Apr 05 03:53 SSW 3 10 Mostly Cloudy BKN035 BKN095 64 56     75%     29.68 29.67 0 0  
Apr 05 02:53 W 9 10 Mostly Cloudy SCT085 BKN110 67 53     61%     29.7 29.69      
Apr 05 01:53 S 10 10 Clear CLR 66 49     54%     29.66 29.65      
Apr 05 00:53 S 9 10 Mostly Clear FEW100 68 50     53%     29.67 29.65      
Apr 04 23:53 S 13 10 Clear CLR 70 50     49%     29.67 29.65      
Apr 04 22:53 SSE 13 10 Clear CLR 70 51     51%     29.67 29.66      
Apr 04 21:53 SSE 7 10 Clear CLR 71 52     51%   70 29.67 29.66      
Apr 04 20:53 SE 5 10 Clear CLR 71 55     57%   71 29.66 29.65      
Apr 04 19:53 SE 5 10 Clear CLR 72 56     57%   72 29.66 29.66      
Apr 04 18:53 S 9 10 Clear CLR 80 52     38%   80 29.67 29.66      
Apr 04 17:53 S 7 10 Clear CLR 84 53     35%   83 29.67 29.66      
Apr 04 16:53 S 14 10 Clear CLR 84 54     36%   83 29.68 29.67      
Apr 04 15:53 S 14 10 Clear CLR 85 55     36%   84 29.68 29.67      
Apr 04 14:53 S 14 10 Clear CLR 84 56     38%   83 29.69 29.68      
Apr 04 13:53 SSE 10 10 Clear CLR 83 57     41%   82 29.73 29.72      
Apr 04 12:53 S 10 10 Clear CLR 82 56     41%   82 29.76 29.75      
Apr 04 11:53 SE 8 10 Clear CLR 79 58     49%   79 29.77 29.76      
Apr 04 10:53 SE 8 10 Clear CLR 75 58     55%   75 29.79 29.78      
Apr 04 08:53 S 6 10 Clear CLR 61 58     90%     29.8 29.79      
Apr 04 07:53 Calm 10 Clear CLR 56 54     93%     29.79 29.79      
Apr 04 06:53 Calm 10 Clear CLR 51 50     96%     29.79 29.78      
Apr 04 05:53 Calm 10 Clear CLR 53 51     93%     29.77 29.76      
Apr 04 04:53 Calm 10 Clear CLR 52 51     97%     29.76 29.75      
Apr 04 03:53 Calm 10 Clear CLR 53 52     96%     29.76 29.75      
Apr 04 02:53 Calm 10 Clear CLR 53 52     96%     29.75 29.74      
Apr 04 01:53 Calm 10 Clear CLR 55 54     96%     29.76 29.75      
Apr 04 00:53 Calm 10 Clear CLR 56 54     93%     29.76 29.75      
Apr 03 23:53 Calm 10 Clear CLR 57 55     93%     29.76 29.75      
Apr 03 22:53 Calm 10 Clear CLR 58 56     93%     29.74 29.73      
Apr 03 21:53 Calm 10 Clear CLR 59 57     93%     29.74 29.73      
Apr 03 20:53 Calm 10 Clear CLR 61 58     90%     29.71 29.7      
Apr 03 19:53 Calm 10 Clear CLR 64 58     81%     29.69 29.68      
Apr 03 18:53 SW 8 10 Clear CLR 72 55     55%   71 29.67 29.66      
Apr 03 17:53 SW 15 10 Clear CLR 74 54     50%   73 29.66 29.65      
Apr 03 16:53 SW 11 10 Clear CLR 75 54     48%   74 29.65 29.64      
Apr 03 15:53 SSW 15 10 Clear CLR 75 55     50%   75 29.66 29.65      
Apr 03 14:53 WSW 10 10 Clear   74 55     52%   73 29.67 29.66      
Apr 03 13:53 SW 13 10 Clear CLR 72 56     57%   72 29.67 29.66      
Apr 03 12:53 WSW 9 10 Mostly Clear FEW027 FEW034 69 57     65%     29.69 29.68      
Apr 03 12:45 WSW 8 10 Partly Cloudy FEW027 SCT034 69 56     63%     29.69        
Apr 03 12:24 WSW 15 10 Mostly Cloudy BKN029 BKN037 68 56     65%     29.7        
Apr 03 11:53 SW 13 10 Mostly Clear FEW019 FEW043 67 59     76%     29.71 29.7      
Apr 03 11:16 SW 13 10 Mostly Cloudy SCT017 SCT025 BKN038 64 58     81%     29.71        
Apr 03 10:53 WSW 11 10 Cloudy SCT015 BKN020 OVC038 63 58     84%     29.71 29.7      
Apr 03 10:26 SW 11 10 Clear   64 59     84%     29.71        
Apr 03 10:18 SW 10 10 Clear   64 59     84%     29.7        
Apr 03 10:03 SW 9 10 Clear   63 60     90%     29.7        
Apr 03 09:53 SW 10 10 Clear   62 60     93%     29.69 29.68      
Apr 03 09:28 SW 9 10 Cloudy SCT013 BKN026 OVC070 62 60     93%     29.69        
Apr 03 09:14 SW 8 10 Cloudy SCT008 BKN014 OVC024 62 60     93%     29.69        
Apr 03 08:53 SW 10 10 Mostly Cloudy BKN008 62 60     93%     29.68 29.67      
Apr 03 08:42 SW 9 10 Mostly Cloudy BKN010 BKN075 62 60     93%     29.67        
Apr 03 08:17 SSW 8 10 Cloudy SCT008 OVC080 61 60     97%     29.67        
Apr 03 08:04 SW 6 10 Cloudy FEW020 OVC080 61 60     97%     29.66        
Apr 03 07:53 SW 7 10 Mostly Cloudy BKN020 BKN080 61 60     97%     29.66 29.65      
Apr 03 06:53 SW 9 10 Cloudy OVC023 62 60     93%     29.64 29.64 0   0
Apr 03 05:53 SW 9 10 Cloudy FEW008 BKN025 OVC030 62 61     96%     29.62 29.62      
Apr 03 05:33 SW 6 10 Cloudy FEW007 BKN018 OVC025 62 61     96%     29.6        
Apr 03 05:06 S 8 10 Cloudy FEW007 BKN010 OVC018 63 62     97%     29.64        
Apr 03 04:53 S 5 10 Cloudy FEW008 BKN015 OVC022 63 62     97%     29.62 29.62      
Apr 03 04:12 SSW 8 10 Cloudy SCT007 SCT016 OVC025 63 62     97%     29.64        
Apr 03 03:53 S 7 10 Cloudy BKN007 BKN013 OVC020 63 63     100%     29.64 29.64      
Apr 03 03:05 S 8 9 Cloudy BKN005 OVC021 63 63     100%     29.64        
Apr 03 02:53 S 8 8 Cloudy OVC003 63 63     100%     29.61 29.6      
Apr 03 01:53 S 9 4 Fog/Mist OVC002 63 63     100%     29.64 29.63      
Apr 03 01:37 SE 9 3 Fog/Mist OVC002 62 62     100%     29.64        
Apr 03 01:27 SSE 9 2.5 Fog/Mist OVC002 62 62     100%     29.66        
Apr 03 00:53 SE 8 7 Cloudy OVC003 62 62     100%     29.64 29.64     0
Apr 03 00:31 SSE 8 10 Cloudy OVC004 62 62     100%     29.65        
Apr 02 23:53 S 6 10 Cloudy OVC006 62 61     96%     29.64 29.64      
Apr 02 23:30 S 6 10 Cloudy BKN008 OVC012 62 61     96%     29.66        
Apr 02 22:53 ESE 7 9 Cloudy OVC003 61 60     97%     29.65 29.64      
Apr 02 22:40 ESE 7 8 Cloudy OVC004 60 60     100%     29.66        
Apr 02 22:20 E 3 9 Cloudy OVC004 60 60     100%     29.63        
Apr 02 21:53 Calm 10 Cloudy OVC005 60 60     100%     29.63 29.63 0 0  
Apr 02 21:30 E 7 10 Cloudy OVC005 60 59     96%     29.65   0    
Apr 02 21:23 E 7 10 Light Rain OVC005 60 59     96%     29.64   0    
Apr 02 21:08   10 Thunderstorms and Rain BKN005 BKN120 60 59     96%         0    
Apr 02 20:53 ENE 7 10 Cloudy OVC005 60 59     96%     29.66 29.65      
Apr 02 19:53 E 9 10 Cloudy OVC003 60 59     96%     29.65 29.64      
Apr 02 18:53 E 8 10 Cloudy OVC004 60 59     96%     29.68 29.67     2
Apr 02 18:02 E 8 10 Cloudy OVC004 59 59     100%     29.72        
Apr 02 17:53 E 8 10 Cloudy OVC005 59 58     96%     29.71 29.7 0    
Apr 02 17:33 E 10 10 Cloudy OVC006 59 58     96%     29.73   0    
Apr 02 17:18 E 10 10 Cloudy OVC005 59 58     96%     29.74   0    
Apr 02 17:00 ENE 9 10 Light Rain BKN005 OVC100 58 58     100%     29.77   0    
Apr 02 16:53 NNE 14 10 Light Rain SCT005 BKN100 OVC120 58 58     100%         0    
Apr 02 16:07 N 13 6 Rain and Fog/Mist FEW005 BKN080 OVC100 58 57     97%     29.77   0    
Apr 02 16:00 N 11 5 Thunderstorms and Heavy Rain and Fog/Mist FEW005 BKN026 OVC090 58 58     100%     29.76   0    
Apr 02 15:57 N 13 3 Thunderstorms and Rain and Fog/Mist FEW005 BKN031 OVC075 58 58     100%     29.76   0    
Apr 02 15:53 NW 17 1.25 Thunderstorms and Heavy Rain and Fog/Mist FEW005 SCT019 OVC027 58 58     100%     29.78   1 2  
Apr 02 15:48   0.75 Thunderstorms and Heavy Rain and Fog/Mist and Squalls FEW005 BKN015 OVC027 57 57     100%     29.8   1    
Apr 02 15:43   1.5 Thunderstorms and Heavy Rain and Fog/Mist FEW005 BKN020 OVC042 59 58     96%         1    
Apr 02 15:32 NNW 11 2.5 Thunderstorms and Heavy Rain and Fog/Mist FEW005 BKN022 OVC042 59 58     96%     29.71   0    
Apr 02 15:26 NNW 10 4 Thunderstorms and Heavy Rain and Fog/Mist FEW010 BKN028 OVC042 59 58     96%     29.72   0    
Apr 02 15:17 NNE 15 2.5 Thunderstorms and Heavy Rain and Fog/Mist FEW009 BKN021 OVC044 59 58     96%     29.7   0    
Apr 02 15:08 N 11 4 Thunderstorms and Rain and Fog/Mist FEW011 BKN016 OVC028 59 58     96%     29.75   0    
Apr 02 15:01 N 16 3 Thunderstorms and Heavy Rain and Fog/Mist   60 58     93%     29.74   0    
Apr 02 14:53 NW 11 2.5 Thunderstorms and Heavy Rain and Fog/Mist   61 58     90%     29.74 29.74 0    
Apr 02 14:37     Thunderstorms and Rain   59 58     96%     29.82   0    
Apr 02 14:12 NE 21 6 Thunderstorms and Rain and Fog/Mist BKN027 OVC035 60 58     93%     29.73   0    
Apr 02 13:53 NE 18 5 Thunderstorms and Rain and Fog/Mist BKN032 BKN045 OVC060 60 58     93%     29.76 29.76 1    
Apr 02 13:47 ENE 18 3 Thunderstorms and Rain and Fog/Mist BKN029 OVC040 61 57     88%     29.78   1    
Apr 02 13:43 ENE 11 2 Thunderstorms and Heavy Rain and Fog/Mist SCT026 OVC031 60 59     96%     29.79   1    
Apr 02 13:38 ENE 9 1.75 Thunderstorms and Heavy Rain and Fog/Mist BKN029 OVC042 60 59     96%     29.8   1    
Apr 02 13:25 ENE 21 0.75 Thunderstorms and Heavy Rain and Fog/Mist BKN022 BKN049 OVC090 61 60     97%     29.8   0    
Apr 02 13:17 E 10 1.75 Thunderstorms and Heavy Rain and Fog/Mist SCT035 BKN048 OVC090 61 60     97%     29.84   0    
Apr 02 12:53 ENE 16 6 Thunderstorms and Rain and Fog/Mist SCT045 BKN055 OVC110 61 58     90%     29.84 29.83 1   1
Apr 02 12:45 E 15 4 Thunderstorms and Rain and Fog/Mist SCT032 BKN049 OVC100 60 58     93%     29.85   1    
Apr 02 12:38   2.5 Thunderstorms and Heavy Rain and Fog/Mist BKN032 BKN049 OVC090 60 57     90%     29.85   1    
Apr 02 12:14 WSW 10 1.75 Thunderstorms and Heavy Rain and Fog/Mist   62 60     93%     29.95   0    
Apr 02 12:10     Thunderstorms and Heavy Rain   63 60     90%     29.95   0    
Apr 02 11:53 NNE 8 10 Thunderstorms and Rain SCT055 BKN100 OVC120 64 59     84%     29.86 29.85 0    
Apr 02 11:44 N 5 10 Thunderstorms and Rain BKN055 BKN090 OVC110 65 59     81%     29.88   0    
Apr 02 11:22 E 6 10 Light Rain BKN065 BKN090 BKN110 66 59     78%     29.9   0    
Apr 02 10:53 ENE 9 10 Mostly Cloudy FEW075 BKN100 67 58     73%     29.88 29.87      
Apr 02 09:53 ENE 10 10 Mostly Cloudy BKN070 68 58     70%     29.93 29.92      
Apr 02 08:53 ENE 10 10 Clear CLR 64 57     78%     29.94 29.93      
Apr 02 07:53 NE 8 10 Clear CLR 58 55     90%     29.97 29.96      
Apr 02 06:53 ENE 7 10 Clear CLR 57 55     93%     29.97 29.96      
Apr 02 05:53 NE 8 10 Clear CLR 59 55     87%     29.97 29.96      
Apr 02 04:53 NNE 6 10 Clear CLR 60 55     83%     29.96 29.95      
Apr 02 03:53 Calm 10 Clear CLR 59 55     87%     29.98 29.96      
Apr 02 02:53 NNW 3 10 Clear CLR 61 55     81%     29.97 29.96      
Apr 02 01:53 NE 7 10 Clear CLR 61 56     83%     29.95 29.93      
Apr 02 00:53 NE 5 10 Clear CLR 62 56     80%     29.98 29.97      
Apr 01 23:53 ENE 5 10 Clear CLR 67 55     66%     29.98 29.97      
Apr 01 22:53 E 9 10 Clear CLR 70 55     59%     29.97 29.96      
Apr 01 21:53 E 9 10 Clear CLR 70 56     61%     29.98 29.97      
Apr 01 20:53 ENE 7 10 Mostly Clear FEW065 68 57     68%     29.97 29.96      
Apr 01 19:53 E 7 10 Clear CLR 73 56     55%   73 29.97 29.96      
Apr 01 18:53 E 11 10 Clear CLR 78 54     43%   78 29.96 29.95      
Apr 01 17:53 ESE 13 10 Clear CLR 81 54     39%   81 29.94 29.93      
Apr 01 16:53 E 13 10 Clear   83 53     36%   82 29.96 29.95      
Apr 01 15:53 E 16 10 Clear CLR 83 55     38%   82 29.97 29.96      
Apr 01 14:53 ENE 11 10 Clear CLR 81 56     42%   81 29.99 29.98      
Apr 01 13:53 ENE 11 10 Clear CLR 81 56     42%   81 30.02 30.01      
Apr 01 12:53 NE 9 10 Clear CLR 78 56     47%   78 30.04 30.03      
Apr 01 11:53 NE 11 10 Clear CLR 74 56     53%   74 30.05 30.04      
Apr 01 10:53 ENE 9 10 Clear CLR 70 56     61%     30.06 30.05      
Apr 01 09:53 NE 9 10 Clear CLR 65 55     70%     30.06 30.06      
Apr 01 08:53 NE 9 10 Clear CLR 61 55     81%     30.06 30.05      
Apr 01 07:53 ENE 6 10 Clear CLR 57 55     93%     30.03 30.02      
Apr 01 06:53 NE 3 10 Clear CLR 54 53     97%     30 29.99      
Apr 01 05:53 ENE 6 10 Clear CLR 54 53     97%     29.98 29.97      
Apr 01 04:53 Calm 10 Clear CLR 55 53     93%     29.97 29.96      
Apr 01 03:53 Calm 10 Clear CLR 55 53     93%     29.95 29.94      
Apr 01 02:53 Calm 10 Clear CLR 56 54     93%     29.94 29.93      
Apr 01 01:53 Calm 10 Clear CLR 59 54     83%     29.94 29.93      
Apr 01 00:53 Calm 10 Clear CLR 60 55     83%     29.93 29.91      
Mar 31 23:53 Calm 10 Clear CLR 61 55     81%     29.91 29.9      
Mar 31 22:53 ESE 5 10 Clear CLR 65 55     70%     29.9 29.89      
Mar 31 21:53 ESE 5 10 Clear CLR 65 55     70%     29.89 29.88      
Mar 31 20:53 ESE 5 10 Clear CLR 64 56     75%     29.87 29.86      
Mar 31 19:53 ENE 3 10 Clear CLR 70 56     61%     29.85 29.84      
Mar 31 18:53 ESE 6 10 Clear CLR 79 50     36%   78 29.83 29.83      
Mar 31 17:53 6 10 Clear CLR 81 49     33%   80 29.83 29.83      
Mar 31 16:53 Calm 10 Clear CLR 81 49     33%   80 29.83 29.82      
Mar 31 15:53 SW 6 10 Clear CLR 80 49     34%   79 29.84 29.83      
Mar 31 14:53 S 5 10 Clear CLR 79 50     36%   78 29.85 29.85      
Mar 31 13:53 5 10 Clear CLR 76 50     40%   75 29.87 29.86      
Mar 31 11:53 ENE 5 10 Clear CLR 69 50     51%     29.91 29.9      
Mar 31 10:53 Calm 10 Clear CLR 64 48     56%     29.93 29.92      
Mar 31 09:53 NNE 6 10 Clear CLR 61 48     62%     29.91 29.91      
Mar 31 08:53 NE 7 10 Clear CLR 56 49     77%     29.9 29.89      
Mar 31 06:53 Calm 10 Clear CLR 46 44     93%     29.86 29.85      
Mar 31 05:53 Calm 10 Clear CLR 45 44     97%     29.84 29.83      
Mar 31 04:53 Calm 10 Clear CLR 46 45     96%     29.83 29.82      
Mar 31 03:53 N 3 10 Clear CLR 47 45     93% 46   29.82 29.81      
Mar 31 02:53 Calm 10 Clear CLR 47 46     97%     29.8 29.8      
Mar 31 01:53 Calm 10 Clear CLR 48 46     93%     29.8 29.79      
Mar 31 00:53 Calm 10 Clear CLR 49 47     93%     29.8 29.8      
Mar 30 23:53 Calm 10 Clear CLR 50 49     96%     29.8 29.79      
Mar 30 22:53 Calm 10 Clear CLR 52 49     89%     29.78 29.78      
Mar 30 21:53 Calm 10 Clear CLR 53 50     89%     29.77 29.77      
Mar 30 20:53 Calm 10 Clear   55 51     86%     29.76 29.75      
Mar 30 19:53 Calm 10 Clear CLR 59 51     75%     29.75 29.74      
Mar 30 18:53 W 5 10 Clear CLR 65 48     54%     29.74 29.73      
Mar 30 17:53 7 10 Clear   66 46     48%     29.73 29.73      
Mar 30 16:53 WSW 8 10 Mostly Cloudy BKN065 BKN075 66 45     47%     29.73 29.73      
Mar 30 15:53 WSW 11 10 Partly Cloudy SCT060 68 46     45%     29.74 29.73      
Mar 30 14:53 SW 13 10 Mostly Clear FEW050 67 47     49%     29.74 29.74      
Mar 30 13:53 WSW 11 10 Partly Cloudy SCT047 66 46     48%     29.77 29.76      
Mar 30 12:53 SW 13 10 Mostly Cloudy BKN047 BKN055 64 45     50%     29.79 29.78      
Mar 30 11:53 WSW 10 10 Clear   61 45     56%     29.8 29.8      
Mar 30 10:53 SW 13 10 Cloudy OVC036 59 46     62%     29.82 29.81      
Mar 30 09:53 SW 10 10 Mostly Cloudy FEW029 BKN036 58 47     67%     29.84 29.83      
Mar 30 09:45 SSW 13 10 Mostly Cloudy BKN031 58 47     67%     29.84        
Mar 30 09:17 SW 11 10 Mostly Cloudy BKN028 58 48     70%     29.83        
Mar 30 08:53 SW 7 10 Mostly Clear FEW028 57 48     72%     29.82 29.81      
Mar 30 07:53 W 6 10 Clear CLR 55 48     77%     29.8 29.79      
Mar 30 06:53 WSW 6 10 Mostly Clear FEW020 56 51     84%     29.78 29.78     0
Mar 30 06:17 W 10 10 Mostly Cloudy BKN020 60 57     90%     29.77        
Mar 30 05:53 WSW 8 10 Partly Cloudy SCT018 61 58     90%     29.76 29.75      
Mar 30 05:50 SW 10 10 Partly Cloudy SCT018 61 57     88%     29.76        
Mar 30 04:53 SW 10 10 Cloudy SCT014 OVC023 63 62     97%     29.73 29.72      
Mar 30 04:25 SSW 7 8 Cloudy FEW003 OVC021 63 62     97%     29.72        
Mar 30 03:53 S 7 7 Cloudy OVC003 63 62     97%     29.72 29.71   0  
Mar 30 03:42 S 8 7 Mostly Cloudy BKN003 62 62     100%     29.73        
Mar 30 03:33 S 6 7 Partly Cloudy SCT003 62 62     100%     29.73        
Mar 30 02:53 SSE 6 6 Fog/Mist FEW100 61 61     100%     29.72 29.71      
Mar 30 01:53 SSE 5 10 Partly Cloudy FEW070 SCT110 63 62     97%     29.75 29.74 0    
Mar 30 01:38 S 3 10 Mostly Cloudy BKN075 BKN090 63 63     100%     29.75   0    
Mar 30 01:29 S 6 10 Light Rain FEW049 BKN075 OVC090 64 63     96%     29.75   0    
Mar 30 00:53 SSW 6 8 Thunderstorms and Rain OVC033 65 61     87%     29.77 29.76 0   0
Mar 29 23:53 SW 7 10 Cloudy FEW031 BKN048 OVC060 66 59     78%     29.76 29.75      
Mar 29 22:53 S 8 10 Partly Cloudy SCT110 67 58     73%     29.74 29.73      
Mar 29 21:53 SSE 11 10 Clear CLR 69 57     65%     29.76 29.75   0  
Mar 29 20:53 S 11 10 Clear CLR 72 62     71%   72 29.76 29.75      
Mar 29 19:53 S 10 10 Mostly Clear FEW110 73 64     73%   73 29.76 29.75 0    
Mar 29 18:53 SE 3 10 Partly Cloudy SCT120 73 64     73%   73 29.74 29.73 0   0
Mar 29 17:53 S 9 10 Cloudy BKN039 BKN047 OVC080 76 63     64%   76 29.78 29.77      
Mar 29 16:53 S 15 10 Mostly Clear FEW045 78 62     58%   78 29.76 29.75      
Mar 29 15:53 SSE 13 10 Mostly Clear FEW047 80 62     54%   81 29.75 29.74      
Mar 29 14:53 SE 14 10 Clear CLR 78 60     54%   78 29.78 29.78      
Mar 29 13:53 SSE 14 10 Mostly Clear FEW041 78 61     56%   78 29.81 29.8      
Mar 29 12:53 SE 20 10 Partly Cloudy and Windy SCT037 77 63     62%   77 29.81 29.8     0
Mar 29 11:53 SE 11 9 Clear CLR 75 68     79%   76 29.86 29.85      
Mar 29 10:53 SE 7 10 Partly Cloudy SCT065 69 65     87%     29.9 29.89 0    
Mar 29 09:53 SE 8 10 Cloudy FEW032 SCT040 OVC085 68 64     87%     29.9 29.89 0 0  
Mar 29 08:53 SSE 14 9 Partly Cloudy FEW055 SCT080 70 64     81%     29.89 29.88      
Mar 29 07:53 SE 11 8 Mostly Cloudy BKN095 67 64     90%     29.88 29.87      
Mar 29 06:53 SE 8 9 Cloudy FEW014 BKN070 OVC085 66 63     90%     29.89 29.88      
Mar 29 06:40 SE 8 10 Cloudy FEW014 BKN070 OVC085 66 63     90%     29.89        
Mar 29 05:53 SSW 9 10 Cloudy OVC016 66 63     90%     29.89        
Mar 29 05:39 SSW 11 10 Cloudy OVC016 66 63     90%     29.87        
Mar 29 05:21 SSE 10 10 Mostly Cloudy BKN014 66 63     90%     29.8        
Mar 29 04:53 SE 10 10 Clear CLR 66 62     87%     29.8 29.79      
Mar 29 03:53 ESE 8 10 Clear CLR 66 62     87%     29.82 29.81      
Mar 29 02:53 SE 7 10 Clear CLR 67 62     84%     29.84 29.83      
Mar 29 01:53 SE 6 10 Mostly Cloudy BKN060 68 63     84%     29.86 29.85      
Mar 29 00:53 SE 5 10 Mostly Cloudy FEW047 BKN060 69 64     84%     29.86 29.85      
Mar 28 23:53 ESE 6 10 Mostly Clear FEW055 69 64     84%     29.86 29.85      
Mar 28 22:53 ESE 6 9 Mostly Clear FEW060 70 64     81%     29.86 29.85      
Mar 28 21:53 E 8 10 Mostly Clear FEW060 71 64     79%   72 29.85 29.84      
Mar 28 20:53 E 6 10 Mostly Clear FEW055 72 64     76%   72 29.85 29.84      
Mar 28 19:53 E 5 10 Clear CLR 73 64     73%   73 29.83 29.82      
Mar 28 18:53 ESE 8 9 Clear CLR 78 63     60%   78 29.83 29.82      
Mar 28 17:53 ESE 8 9 Clear CLR 81 64     56%   83 29.84 29.83      
Mar 28 16:53 E 10 9 Mostly Cloudy SCT042 BKN055 81 65     58%   83 29.85 29.84      
Mar 28 15:53 6 9 Cloudy OVC037 79 65     62%   80 29.88 29.87      
Mar 28 14:53 E 11 8 Cloudy SCT028 OVC035 77 65     66%   78 29.91 29.9      
Mar 28 13:53 ESE 5 7 Cloudy FEW025 OVC036 74 65     74%   74 29.94 29.93      
Mar 28 13:51 E 6 7 Cloudy SCT025 OVC036 73 64     73%   74 29.94        
Mar 28 12:53 E 5 8 Cloudy SCT013 BKN026 OVC034 71 64     79%   72 29.97 29.96      
Mar 28 12:44 ESE 5 8 Cloudy SCT011 BKN017 OVC023 70 64     81%     29.98        
Mar 28 11:53 SSE 5 8 Cloudy OVC011 69 62     78%     29.99 29.98      
Mar 28 11:05 E 6 8 Cloudy BKN012 OVC023 68 60     76%     29.99        
Mar 28 10:53 ESE 3 9 Cloudy FEW013 OVC023 67 59     76%     29.99 29.98